| time (UTC) | temp C | wind direction | speed KPH | gust KPH | rain 1hr cm | rain 24hr cm | rain mn cm | humidity % | barometer mb |
| 20260508141047 | 18 | 105 | 0.0 | 3.2 | 0.00 | 0.03 | 0.03 | 63 | 1017.0 |
| 20260508140030 | 18 | 84 | 0.0 | 3.2 | 0.00 | 0.03 | 0.03 | 61 | 1016.8 |
| 20260508135027 | 17 | 97 | 0.0 | 1.6 | 0.00 | 0.03 | 0.03 | 64 | 1016.7 |
| 20260508134112 | 18 | 71 | 4.8 | 8.0 | 0.00 | 0.03 | 0.03 | 64 | 1017.0 |
| 20260508133047 | 18 | 67 | 0.0 | 3.2 | 0.00 | 0.03 | 0.03 | 63 | 1017.0 |
| 20260508132033 | 18 | 80 | 1.6 | 4.8 | 0.00 | 0.03 | 0.03 | 64 | 1017.0 |
| 20260508131034 | 19 | 113 | 0.0 | 3.2 | 0.00 | 0.03 | 0.03 | 61 | 1017.1 |
| 20260508130037 | 17 | 59 | 0.0 | 1.6 | 0.00 | 0.03 | 0.03 | 65 | 1017.0 |
| 20260508125035 | 17 | 97 | 0.0 | 3.2 | 0.00 | 0.03 | 0.03 | 66 | 1017.0 |
| 20260508124019 | 18 | 55 | 1.6 | 4.8 | 0.00 | 0.03 | 0.03 | 64 | 1016.8 |
| 20260508123022 | 18 | 90 | 1.6 | 6.4 | 0.00 | 0.03 | 0.03 | 60 | 1016.8 |
| 20260508122025 | 18 | 0.0 | 0.0 | 0.00 | 0.03 | 0.03 | 59 | 1016.7 | |
| 20260508121026 | 17 | 66 | 0.0 | 3.2 | 0.00 | 0.03 | 0.03 | 62 | 1016.7 |
| 20260508120033 | 18 | 97 | 1.6 | 6.4 | 0.00 | 0.03 | 0.03 | 61 | 1016.8 |
| 20260508115039 | 17 | 99 | 1.6 | 4.8 | 0.00 | 0.03 | 0.03 | 62 | 1016.7 |
| 20260508114028 | 17 | 70 | 3.2 | 6.4 | 0.00 | 0.03 | 0.03 | 62 | 1016.7 |
| 20260508113056 | 18 | 77 | 1.6 | 4.8 | 0.00 | 0.03 | 0.03 | 63 | 1017.1 |
| 20260508112023 | 17 | 102 | 0.0 | 3.2 | 0.00 | 0.03 | 0.03 | 65 | 1017.1 |
| 20260508111039 | 17 | 82 | 1.6 | 4.8 | 0.00 | 0.03 | 0.03 | 66 | 1017.1 |
| 20260508110036 | 18 | 80 | 1.6 | 3.2 | 0.00 | 0.03 | 0.03 | 64 | 1017.2 |
| 20260508105032 | 20 | 124 | 1.6 | 3.2 | 0.00 | 0.03 | 0.03 | 57 | 1017.2 |
| 20260508104044 | 18 | 223 | 0.0 | 4.8 | 0.00 | 0.03 | 0.03 | 60 | 1017.5 |
| 20260508103044 | 18 | 0.0 | 0.0 | 0.00 | 0.03 | 0.03 | 62 | 1017.1 | |
| 20260508102025 | 18 | 231 | 0.0 | 0.0 | 0.00 | 0.03 | 0.03 | 61 | 1017.0 |
| 20260508101108 | 17 | 108 | 0.0 | 4.8 | 0.00 | 0.03 | 0.03 | 63 | 1017.0 |
| 20260508100035 | 16 | 81 | 1.6 | 4.8 | 0.00 | 0.03 | 0.03 | 65 | 1017.3 |
| 20260508095020 | 17 | 100 | 0.0 | 1.6 | 0.00 | 0.03 | 0.03 | 64 | 1017.4 |
| 20260508094024 | 20 | 94 | 0.0 | 1.6 | 0.00 | 0.03 | 0.03 | 62 | 1017.5 |
| 20260508093055 | 18 | 67 | 0.0 | 3.2 | 0.00 | 0.03 | 0.03 | 61 | 1017.1 |
| 20260508092107 | 17 | 96 | 1.6 | 4.8 | 0.00 | 0.03 | 0.03 | 66 | 1017.0 |
| 20260508091023 | 17 | 344 | 0.0 | 3.2 | 0.00 | 0.03 | 0.03 | 64 | 1017.4 |
| 20260508090035 | 18 | 82 | 1.6 | 4.8 | 0.00 | 0.03 | 0.03 | 66 | 1017.4 |
| 20260508085026 | 16 | 97 | 1.6 | 4.8 | 0.00 | 0.03 | 0.03 | 68 | 1017.3 |
| 20260508084019 | 15 | 79 | 0.0 | 1.6 | 0.00 | 0.03 | 0.03 | 74 | 1017.2 |
| 20260508083032 | 15 | 69 | 0.0 | 3.2 | 0.00 | 0.03 | 0.03 | 75 | 1017.2 |
| 20260508082029 | 14 | 92 | 0.0 | 4.8 | 0.00 | 0.03 | 0.03 | 76 | 1017.2 |
| 20260508081025 | 14 | 96 | 0.0 | 3.2 | 0.00 | 0.03 | 0.03 | 77 | 1017.2 |
| 20260508080044 | 15 | 115 | 0.0 | 4.8 | 0.00 | 0.03 | 0.03 | 78 | 1017.6 |
| 20260508075027 | 14 | 98 | 0.0 | 1.6 | 0.00 | 0.03 | 0.03 | 77 | 1017.5 |
| 20260508074019 | 14 | 84 | 1.6 | 4.8 | 0.00 | 0.03 | 0.03 | 78 | 1016.9 |
| 20260508073048 | 14 | 74 | 1.6 | 4.8 | 0.00 | 0.03 | 0.03 | 79 | 1016.9 |
| 20260508072029 | 14 | 93 | 1.6 | 6.4 | 0.00 | 0.03 | 0.03 | 80 | 1017.0 |
| 20260508071029 | 15 | 98 | 1.6 | 8.0 | 0.00 | 0.03 | 0.03 | 77 | 1017.0 |
| 20260508070022 | 15 | 87 | 1.6 | 3.2 | 0.00 | 0.03 | 0.03 | 77 | 1017.0 |
| 20260508065028 | 16 | 102 | 0.0 | 4.8 | 0.00 | 0.03 | 0.03 | 74 | 1017.1 |
| 20260508064045 | 17 | 94 | 1.6 | 8.0 | 0.00 | 0.03 | 0.03 | 72 | 1017.2 |
| 20260508063052 | 17 | 103 | 1.6 | 4.8 | 0.00 | 0.03 | 0.03 | 72 | 1016.8 |
| 20260508062024 | 16 | 90 | 0.0 | 1.6 | 0.00 | 0.03 | 0.03 | 74 | 1016.8 |
| 20260508061030 | 15 | 99 | 0.0 | 1.6 | 0.00 | 0.03 | 0.03 | 76 | 1016.8 |
| 20260508060054 | 14 | 104 | 1.6 | 4.8 | 0.00 | 0.03 | 0.03 | 82 | 1016.4 |
| 20260508055022 | 14 | 104 | 0.0 | 1.6 | 0.00 | 0.03 | 0.03 | 82 | 1016.4 |
| 20260508054053 | 13 | 0.0 | 0.0 | 0.00 | 0.03 | 0.03 | 88 | 1016.7 | |
| 20260508053056 | 11 | 109 | 0.0 | 0.0 | 0.00 | 0.03 | 0.03 | 94 | 1016.6 |
| 20260508052026 | 11 | 162 | 0.0 | 0.0 | 0.00 | 0.03 | 0.03 | 96 | 1016.6 |
| 20260508051025 | 10 | 0.0 | 0.0 | 0.00 | 0.03 | 0.03 | 96 | 1016.3 | |
| 20260508050024 | 10 | 0.0 | 0.0 | 0.00 | 0.03 | 0.03 | 97 | 1016.3 | |
| 20260508045035 | 10 | 0.0 | 0.0 | 0.00 | 0.03 | 0.03 | 97 | 1016.3 | |
| 20260508044048 | 9 | 0.0 | 0.0 | 0.00 | 0.03 | 0.03 | 97 | 1015.9 | |
| 20260508043022 | 8 | 0.0 | 0.0 | 0.00 | 0.03 | 0.03 | 97 | 1015.9 | |
| 20260508042031 | 8 | 0.0 | 0.0 | 0.00 | 0.03 | 0.03 | 97 | 1015.9 | |
| 20260508041021 | 8 | 0.0 | 0.0 | 0.00 | 0.03 | 0.03 | 96 | 1015.9 | |
| 20260508040034 | 8 | 0.0 | 0.0 | 0.00 | 0.03 | 0.03 | 96 | 1015.9 | |
| 20260508035028 | 8 | 0.0 | 0.0 | 0.00 | 0.03 | 0.03 | 96 | 1016.0 | |
| 20260508034024 | 9 | 0.0 | 0.0 | 0.00 | 0.03 | 0.03 | 96 | 1016.0 | |
| 20260508033024 | 9 | 0.0 | 0.0 | 0.00 | 0.03 | 0.03 | 96 | 1015.7 | |
| 20260508032021 | 9 | 0.0 | 0.0 | 0.00 | 0.03 | 0.03 | 96 | 1015.8 | |
| 20260508031032 | 10 | 0.0 | 0.0 | 0.00 | 0.03 | 0.03 | 95 | 1015.8 | |
| 20260508030025 | 10 | 0.0 | 0.0 | 0.00 | 0.03 | 0.03 | 95 | 1015.8 | |
| 20260508025050 | 10 | 0.0 | 0.0 | 0.00 | 0.03 | 0.03 | 95 | 1015.9 | |
| 20260508024100 | 10 | 0.0 | 0.0 | 0.00 | 0.03 | 0.03 | 95 | 1016.0 | |
| 20260508023023 | 11 | 0.0 | 0.0 | 0.00 | 0.03 | 0.03 | 94 | 1015.6 | |
| 20260508022033 | 11 | 0.0 | 0.0 | 0.00 | 0.03 | 0.03 | 94 | 1015.6 | |
| 20260508021020 | 11 | 0.0 | 0.0 | 0.00 | 0.03 | 0.03 | 94 | 1015.6 | |
| 20260508020100 | 11 | 0.0 | 0.0 | 0.03 | 0.03 | 0.03 | 94 | 1015.6 | |
| 20260508015048 | 12 | 74 | 0.0 | 1.6 | 0.03 | 0.03 | 0.03 | 93 | 1015.6 |
| 20260508014039 | 12 | 97 | 0.0 | 0.0 | 0.03 | 0.03 | 0.03 | 93 | 1015.6 |
| 20260508013024 | 12 | 0.0 | 0.0 | 0.03 | 0.03 | 0.03 | 92 | 1015.6 | |
| 20260508012027 | 12 | 0.0 | 0.0 | 0.03 | 0.03 | 0.03 | 91 | 1015.6 | |
| 20260508011026 | 12 | 0.0 | 0.0 | 0.03 | 0.03 | 0.03 | 91 | 1015.6 | |
| 20260508010030 | 12 | 0.0 | 0.0 | 0.00 | 0.00 | 0.00 | 90 | 1015.6 | |
| 20260508005028 | 12 | 107 | 0.0 | 0.0 | 0.00 | 0.00 | 0.00 | 90 | 1015.5 |
| 20260508004020 | 12 | 84 | 0.0 | 0.0 | 0.00 | 0.00 | 0.00 | 89 | 1015.2 |
| 20260508003021 | 12 | 71 | 0.0 | 3.2 | 0.00 | 0.00 | 0.00 | 88 | 1015.5 |
| 20260508002033 | 12 | 0.0 | 0.0 | 0.00 | 0.00 | 0.00 | 87 | 1015.5 | |
| 20260508001020 | 12 | 77 | 0.0 | 1.6 | 0.00 | 0.00 | 0.00 | 86 | 1015.1 |
| 20260508000036 | 13 | 74 | 0.0 | 1.6 | 0.00 | 0.00 | 0.00 | 84 | 1015.5 |
| 20260507235020 | 13 | 108 | 0.0 | 3.2 | 0.00 | 0.00 | 0.00 | 83 | 1015.5 |
| 20260507234031 | 13 | 79 | 0.0 | 6.4 | 0.00 | 0.00 | 0.00 | 82 | 1015.5 |
| 20260507233023 | 13 | 97 | 0.0 | 4.8 | 0.00 | 0.00 | 0.00 | 80 | 1015.1 |
| 20260507232027 | 13 | 100 | 0.0 | 1.6 | 0.00 | 0.00 | 0.00 | 79 | 1015.1 |
| 20260507231027 | 13 | 79 | 0.0 | 0.0 | 0.00 | 0.00 | 0.00 | 78 | 1015.5 |
| 20260507230031 | 13 | 99 | 0.0 | 1.6 | 0.00 | 0.00 | 0.00 | 76 | 1015.1 |
| 20260507225028 | 13 | 0.0 | 0.0 | 0.00 | 0.00 | 0.00 | 76 | 1015.1 | |
| 20260507224026 | 13 | 107 | 0.0 | 4.8 | 0.00 | 0.00 | 0.00 | 76 | 1015.5 |
| 20260507223050 | 13 | 89 | 0.0 | 0.0 | 0.00 | 0.00 | 0.00 | 77 | 1014.8 |
| 20260507222048 | 13 | 231 | 0.0 | 1.6 | 0.00 | 0.00 | 0.00 | 78 | 1014.8 |
| 20260507221019 | 12 | 333 | 0.0 | 1.6 | 0.00 | 0.00 | 0.00 | 82 | 1014.8 |
| 20260507220532 | 12 | 0.0 | 0.0 | 0.00 | 0.00 | 0.00 | 90 | 1014.4 | |
| 20260507215031 | 12 | 0.0 | 0.0 | 0.00 | 0.00 | 0.00 | 90 | 1014.4 | |
| 20260507214019 | 12 | 255 | 0.0 | 0.0 | 0.00 | 0.00 | 0.00 | 90 | 1014.7 |
| 20260507213026 | 12 | 0.0 | 0.0 | 0.00 | 0.00 | 0.00 | 90 | 1014.7 | |
| 20260507212024 | 12 | 0.0 | 0.0 | 0.00 | 0.00 | 0.00 | 89 | 1014.7 | |
| 20260507211029 | 12 | 0.0 | 0.0 | 0.00 | 0.00 | 0.00 | 89 | 1014.4 | |
| 20260507210030 | 12 | 0.0 | 0.0 | 0.00 | 0.00 | 0.00 | 89 | 1014.4 | |
| 20260507205023 | 12 | 246 | 0.0 | 0.0 | 0.00 | 0.00 | 0.00 | 89 | 1014.4 |
| 20260507204029 | 12 | 0.0 | 0.0 | 0.00 | 0.00 | 0.00 | 88 | 1014.3 | |
| 20260507203056 | 12 | 0.0 | 0.0 | 0.00 | 0.00 | 0.00 | 87 | 1013.9 | |
| 20260507202020 | 12 | 0.0 | 0.0 | 0.00 | 0.00 | 0.00 | 87 | 1013.9 | |
| 20260507201056 | 12 | 0.0 | 0.0 | 0.00 | 0.00 | 0.00 | 87 | 1013.9 | |
| 20260507200058 | 12 | 0.0 | 0.0 | 0.00 | 0.00 | 0.00 | 86 | 1013.6 | |
| 20260507195022 | 12 | 0.0 | 0.0 | 0.00 | 0.00 | 0.00 | 85 | 1013.6 | |
| 20260507194020 | 12 | 96 | 0.0 | 0.0 | 0.00 | 0.00 | 0.00 | 85 | 1013.6 |
| 20260507193153 | 13 | 54 | 1.6 | 4.8 | 0.00 | 0.00 | 0.00 | 85 | 1013.6 |
| 20260507192051 | 13 | 85 | 0.0 | 3.2 | 0.00 | 0.00 | 0.00 | 82 | 1013.7 |
| 20260507191028 | 13 | 162 | 0.0 | 1.6 | 0.00 | 0.00 | 0.00 | 79 | 1013.7 |
| 20260507190024 | 14 | 244 | 0.0 | 4.8 | 0.00 | 0.00 | 0.00 | 77 | 1013.3 |
| 20260507185019 | 15 | 106 | 0.0 | 0.0 | 0.00 | 0.00 | 0.00 | 74 | 1013.4 |
| 20260507184021 | 15 | 225 | 0.0 | 0.0 | 0.00 | 0.00 | 0.00 | 70 | 1013.0 |
| 20260507183021 | 15 | 264 | 1.6 | 4.8 | 0.00 | 0.00 | 0.00 | 67 | 1013.0 |
| 20260507182022 | 15 | 299 | 1.6 | 8.0 | 0.00 | 0.00 | 0.00 | 66 | 1013.0 |
| 20260507181024 | 15 | 283 | 3.2 | 8.0 | 0.00 | 0.00 | 0.00 | 66 | 1012.6 |
| 20260507180029 | 15 | 259 | 1.6 | 4.8 | 0.00 | 0.00 | 0.00 | 67 | 1012.3 |
| 20260507175046 | 16 | 251 | 3.2 | 8.0 | 0.00 | 0.00 | 0.00 | 68 | 1012.4 |
| 20260507174034 | 16 | 255 | 3.2 | 9.7 | 0.00 | 0.00 | 0.00 | 66 | 1012.3 |
| 20260507173026 | 17 | 259 | 1.6 | 4.8 | 0.00 | 0.00 | 0.00 | 63 | 1012.0 |
| 20260507172027 | 17 | 298 | 0.0 | 3.2 | 0.00 | 0.00 | 0.00 | 60 | 1012.0 |
| 20260507171025 | 17 | 269 | 0.0 | 0.0 | 0.00 | 0.00 | 0.00 | 61 | 1012.0 |
| 20260507170023 | 18 | 0.0 | 0.0 | 0.00 | 0.00 | 0.00 | 60 | 1011.7 | |
| 20260507165051 | 18 | 207 | 1.6 | 6.4 | 0.00 | 0.00 | 0.00 | 58 | 1011.7 |
| 20260507164019 | 19 | 217 | 0.0 | 3.2 | 0.00 | 0.00 | 0.00 | 55 | 1011.8 |
| 20260507163024 | 19 | 233 | 0.0 | 3.2 | 0.00 | 0.00 | 0.00 | 55 | 1011.4 |
| 20260507162033 | 19 | 221 | 0.0 | 0.0 | 0.00 | 0.00 | 0.00 | 54 | 1011.4 |
| 20260507161024 | 19 | 158 | 0.0 | 4.8 | 0.00 | 0.00 | 0.00 | 54 | 1011.3 |
| 20260507160036 | 19 | 196 | 1.6 | 8.0 | 0.00 | 0.00 | 0.00 | 53 | 1011.3 |
| 20260507155026 | 20 | 252 | 0.0 | 0.0 | 0.00 | 0.00 | 0.00 | 52 | 1011.4 |
| 20260507154023 | 20 | 170 | 0.0 | 6.4 | 0.00 | 0.00 | 0.00 | 50 | 1011.4 |
| 20260507153028 | 21 | 188 | 1.6 | 6.4 | 0.00 | 0.00 | 0.00 | 48 | 1011.5 |
| 20260507152031 | 21 | 151 | 1.6 | 6.4 | 0.00 | 0.00 | 0.00 | 48 | 1011.5 |
| 20260507151019 | 23 | 205 | 1.6 | 4.8 | 0.00 | 0.00 | 0.00 | 46 | 1011.9 |
| 20260507150022 | 22 | 215 | 0.0 | 3.2 | 0.00 | 0.00 | 0.00 | 47 | 1011.9 |
| 20260507145051 | 22 | 287 | 1.6 | 4.8 | 0.00 | 0.00 | 0.00 | 46 | 1011.9 |
| 20260507144027 | 21 | 225 | 3.2 | 6.4 | 0.00 | 0.00 | 0.00 | 49 | 1011.5 |
| 20260507143026 | 22 | 282 | 1.6 | 6.4 | 0.00 | 0.00 | 0.00 | 48 | 1012.0 |
| 20260507142035 | 25 | 254 | 3.2 | 11.3 | 0.00 | 0.00 | 0.00 | 45 | 1012.1 |